SCP
4 5 5 5 5 5 5 5 4 4 4 3 3 3 2 2 2 2 1 1 1 1 1 0 0 0 0 0 1 1 1 1 0 0 0 1 0 0 0 0 0 0 0
5 6 5 5 5 6 6 5 5 4 4 3 3 2 2 2 2 1 1 1 1 1 1 0 0 0 0 0 0 1 1 1 1 0 0 1 0 0 0 0 0 0 0
6 6 6 5 6 6 6 6 5 4 4 3 3 2 2 2 2 1 1 1 1 1 1 0 0 0 0 0 0 0 1 1 1 1 1 1 0 0 0 0 0 0 0
7 7 6 6 6 6 7 7 6 5 4 3 3 3 2 2 2 1 1 1 1 1 1 0 0 0 0 0 0 0 0 0 1 1 1 0 0 0 0 0 0 0 0
7 7 7 6 6 6 7 7 6 5 4 3 3 2 2 2 2 2 1 1 1 1 1 1 0 0 0 0 0 0 0 0 0 1 0 0 0 0 0 0 0 0 0
7 7 7 7 6 6 6 7 6 5 4 3 3 2 2 2 2 2 2 2 2 1 1 1 1 1 0 0 0 0 0 0 0 0 0 0 0 0 0 0 0 0 0
7 7 7 7 7 6 6 6 6 5 5 4 3 2 2 2 2 2 2 2 2 2 1 1 1 1 1 1 1 1 1 0 0 0 0 0 0 0 0 0 0 0 0
7 6 6 7 7 6 5 5 5 5 5 4 3 3 2 2 2 1 1 1 1 1 1 1 1 1 1 1 1 1 1 1 1 0 0 0 0 0 0 0 0 0 0
7 6 6 6 7 6 5 5 4 4 4 4 3 3 2 2 2 1 1 1 1 1 1 1 1 1 1 1 1 1 1 1 1 1 0 0 0 0 0 0 0 0 0
7 7 6 6 6 7 6 5 4 4 4 4 4 3 3 3 2 1 1 1 1 1 1 1 1 1 1 1 1 1 1 1 1 0 0 0 0 0 0 0 0 0 0
7 8 7 6 6 6 6 5 4 4 4 4 4 3 3 3 2 1 1 1 1 1 1 1 1 1 1 1 1 1 1 1 1 1 0 0 0 0 0 0 0 0 0
7 8 8 7 6 7 7 6 5 4 4 4 4 3 3 3 2 1 1 1 1 1 1 0 0 1 0 0 0 1 1 1 1 1 0 0 1 1 1 1 1 0 0
8 8 8 8 6 6 7 7 6 5 5 4 4 3 3 3 2 1 1 0 0 0 0 0 0 0 0 0 0 0 1 1 1 1 1 1 1 1 1 1 1 1 0
8 8 8 7 6 6 7 7 7 6 5 5 4 3 3 2 2 1 1 0 0 0 0 0 0 0 0 0 0 0 0 0 1 1 1 1 1 1 1 1 1 1 1
8 8 8 6 5 5 6 7 7 7 6 5 4 3 3 2 2 1 1 1 0 0 0 0 0 0 0 0 0 0 0 0 0 0 1 1 1 1 1 1 1 1 1
8 8 7 6 5 5 5 6 7 7 6 5 4 3 3 2 2 1 1 1 0 0 0 0 0 0 0 0 0 0 0 0 0 0 0 0 0 1 1 1 1 1 1
8 7 6 6 5 5 5 5 5 6 6 5 5 4 3 2 2 1 1 1 1 0 0 0 0 0 0 0 0 0 0 0 0 0 0 0 0 0 1 1 1 1 1
7 7 6 6 5 5 5 4 4 4 5 5 5 4 3 2 2 1 1 1 1 0 0 0 0 0 0 0 0 0 0 0 0 0 0 0 0 0 0 1 1 1 1
7 6 6 6 6 5 5 4 3 3 3 4 4 4 3 2 1 1 1 1 1 0 0 0 0 0 0 0 0 0 0 0 0 0 0 0 0 0 0 0 0 1 1
5 5 5 6 6 6 6 5 3 3 3 3 3 3 3 2 1 1 1 1 1 1 0 0 0 0 0 0 0 0 0 0 0 0 0 0 0 0 0 0 0 0 0
4 4 4 5 5 6 5 4 3 3 3 3 2 2 2 2 1 1 1 1 1 1 0 0 0 0 0 0 0 0 0 0 0 0 0 0 0 0 0 0 0 0 0
3 3 3 3 4 5 5 4 3 3 3 3 2 2 2 2 1 1 1 1 1 1 1 0 0 0 0 0 0 0 0 0 0 0 0 0 0 0 0 0 0 0 0
3 3 2 2 3 4 4 4 4 3 3 2 2 2 2 1 1 1 1 1 1 1 1 0 0 0 0 0 0 0 0 0 0 0 0 0 0 0 0 0 0 0 0
3 2 2 2 2 3 4 4 4 3 2 2 2 2 2 1 1 2 1 1 1 1 1 0 0 0 0 0 0 0 0 0 0 0 0 0 0 0 0 0 0 0 0
3 2 2 2 2 2 3 4 3 3 2 1 1 1 1 1 1 2 2 1 1 0 0 0 0 0 0 0 0 0 0 0 0 0 0 0 0 0 0 0 0 0 0
3 3 2 2 1 2 2 3 3 3 2 1 1 1 1 1 1 2 2 2 1 0 0 0 0 0 0 0 0 0 0 0 0 0 0 0 0 0 0 0 0 0 0
Wind_Speed
5 8 14 14 14 14 14 14 14 14 14 14 14 15 15 15 15 15 14 14 14 14 14 14 14 14 14 14 14 14 14 14 14 14 13 13 14 14 14 13 12 8 13
9 11 15 14 14 14 14 14 13 14 13 13 14 14 14 14 14 14 14 14 14 14 13 13 13 13 13 13 13 13 13 13 13 12 12 11 12 13 13 12 12 8 12
11 11 13 14 14 14 14 14 14 14 13 13 14 14 14 14 13 13 13 13 13 13 13 13 13 12 12 12 12 12 12 13 12 12 10 5 7 12 12 12 11 11 11
11 10 11 15 14 14 14 14 14 14 13 13 14 13 13 13 13 13 13 13 13 12 12 12 12 12 12 11 12 12 12 12 12 11 6 4 4 10 11 11 11 11 11
9 8 11 15 15 15 15 14 14 14 14 14 13 13 13 13 13 13 12 12 12 12 12 11 11 11 11 10 11 11 11 11 11 9 5 4 4 9 10 10 10 10 10
8 7 10 14 15 15 14 14 14 14 14 14 13 13 13 13 13 12 12 12 12 12 11 11 10 10 10 10 10 10 11 11 9 5 4 3 3 8 9 10 9 9 9
9 7 10 13 14 15 14 14 14 13 13 13 13 13 13 13 12 12 12 12 12 11 11 10 10 9 9 9 9 9 10 10 5 4 3 3 4 9 9 9 9 9 9
10 8 9 12 12 13 14 14 13 13 13 13 13 13 13 12 12 12 11 11 11 11 10 9 9 8 8 8 8 8 9 8 6 4 3 2 6 8 8 8 8 8 8
9 8 7 8 9 11 13 13 13 12 12 12 12 12 12 11 11 11 11 11 10 10 9 8 8 7 7 7 7 7 8 8 4 2 2 2 6 7 7 7 7 7 7
7 7 7 7 6 6 7 11 12 12 12 11 11 11 11 10 10 10 9 9 9 8 8 7 7 6 6 6 6 7 7 6 3 2 1 2 5 6 6 6 6 6 6
6 5 6 6 6 6 6 8 9 10 10 10 9 10 9 5 5 5 7 8 8 8 7 6 6 5 5 5 5 6 5 2 2 1 0 3 4 5 5 5 5 5 5
7 6 5 6 6 6 5 5 4 5 6 5 5 5 4 4 4 5 7 7 7 6 6 5 5 4 3 2 3 4 2 2 1 1 1 3 4 4 5 5 4 4 4
8 7 5 6 6 6 4 4 3 3 4 4 5 5 4 4 3 3 2 3 3 3 2 2 3 1 1 1 1 2 2 2 1 0 1 2 3 4 4 4 4 4 4
8 6 6 6 6 5 5 4 4 3 3 3 4 6 5 3 3 2 2 2 1 1 1 1 1 1 1 1 2 2 2 1 1 0 1 2 2 3 3 3 4 3 3
7 7 6 6 6 6 5 4 4 3 3 4 4 4 5 4 4 3 2 2 1 1 1 1 1 1 1 1 1 2 2 1 1 1 1 2 2 2 2 3 3 4 4
7 7 6 6 6 5 4 4 4 3 3 3 3 4 5 4 4 4 3 2 2 2 1 1 1 1 0 1 1 1 1 1 1 1 1 1 3 3 2 3 3 4 5
7 7 6 6 5 5 5 4 4 3 3 3 3 3 4 5 5 4 3 2 2 2 2 2 1 1 1 1 1 1 1 1 1 1 1 1 1 3 3 3 3 4 5
6 7 6 6 6 5 4 4 3 3 3 3 3 3 3 4 5 4 3 3 2 2 2 2 1 1 1 1 1 1 1 1 1 1 1 1 1 1 2 3 4 4 5
6 6 6 6 7 5 5 4 4 3 3 3 3 3 2 3 4 4 3 2 3 2 2 2 1 1 1 1 0 1 1 0 0 1 1 1 0 1 1 3 4 5 6
5 5 5 5 6 5 4 4 3 3 2 2 2 3 3 3 3 3 2 2 3 3 2 2 2 1 1 1 1 1 1 1 0 0 0 0 0 1 1 1 2 3 5
4 4 5 5 5 5 4 4 3 3 2 2 2 3 3 3 3 3 3 3 3 3 3 3 2 2 1 1 1 2 2 2 1 1 0 0 0 1 1 1 1 1 2
4 4 4 4 4 4 4 3 3 3 2 2 2 2 3 3 2 3 4 3 3 3 3 3 3 2 0 1 2 1 1 3 2 2 1 0 1 1 1 1 1 1 2
3 3 3 3 4 4 4 3 3 2 2 1 1 2 2 3 2 2 3 3 3 3 3 3 3 3 2 0 1 2 2 2 3 3 2 1 1 1 1 1 1 2 2
2 2 3 2 3 3 4 4 5 4 3 3 2 2 2 3 3 2 3 3 3 2 3 2 2 2 3 1 0 0 1 2 1 2 3 2 2 2 2 2 2 2 2
3 2 2 3 3 3 4 5 5 3 2 2 3 3 2 2 3 2 3 3 3 2 2 2 2 2 2 2 1 0 0 0 1 1 3 3 3 2 2 2 2 2 2
3 2 2 2 2 2 3 4 4 5 4 4 4 4 2 1 1 2 2 3 3 3 2 2 2 2 2 2 1 1 1 1 1 1 2 3 3 3 3 2 2 2 2
Wind_Direction
162 162 150 146 141 136 131 127 123 119 115 113 112 110 110 109 108 107 104 102 100 97 95 93 91 89 87 86 85 83 81 79 79 76 76 78 77 76 74 72 69 65 68
151 155 147 144 141 137 133 129 125 122 119 117 115 113 111 111 110 108 106 104 102 100 98 95 93 91 88 86 85 84 83 81 79 77 76 75 77 77 75 75 73 70 69
141 146 145 144 141 137 134 131 127 125 122 119 118 116 115 113 111 109 107 106 104 101 100 98 95 92 88 86 85 84 83 83 79 77 77 67 73 77 76 75 73 72 70
141 145 147 144 141 137 134 132 130 127 124 122 119 119 118 116 113 109 108 107 105 102 100 99 96 93 90 87 85 83 82 82 79 76 66 58 66 78 77 74 71 69 67
136 140 145 143 141 139 136 134 131 127 125 124 122 121 120 118 115 112 110 110 106 103 102 100 98 96 92 91 89 86 82 80 77 68 58 50 55 76 75 72 68 66 63
132 136 142 141 141 139 138 135 132 128 126 125 123 122 120 118 115 113 113 113 110 107 104 101 99 98 96 93 90 88 85 82 72 60 60 55 59 76 76 73 68 65 62
135 137 144 139 143 141 139 137 133 131 129 127 126 124 121 118 116 114 115 116 113 111 107 104 100 99 97 94 91 91 90 86 77 63 58 55 67 75 75 72 66 63 60
139 140 142 140 138 143 142 140 137 135 133 131 129 126 123 121 120 119 118 117 115 113 110 108 105 102 98 92 89 92 94 87 81 75 62 56 77 73 71 69 64 61 58
133 135 138 140 138 140 143 141 139 137 135 135 132 128 125 123 122 121 119 117 117 117 114 111 107 104 100 93 85 90 93 88 83 80 76 63 79 74 71 66 61 59 56
122 130 134 136 133 134 139 140 139 138 136 134 130 127 124 123 121 120 119 119 119 118 117 115 109 105 101 89 80 87 91 87 80 80 61 83 84 77 69 61 58 59 55
121 126 135 137 133 131 133 136 138 137 136 133 131 127 120 118 118 119 121 120 121 120 118 115 110 106 97 80 74 84 85 77 78 72 70 89 86 75 67 61 58 55 51
147 146 146 141 139 137 137 128 137 138 139 135 133 129 125 123 125 121 122 120 120 119 115 110 103 96 76 58 67 75 78 83 84 73 85 92 82 72 60 55 52 49 50
156 150 146 146 142 139 136 135 133 135 138 138 139 136 128 122 119 112 115 113 108 105 86 78 70 54 67 68 63 76 89 90 93 50 68 90 78 62 51 46 40 43 43
151 150 147 140 137 135 133 137 133 135 144 147 148 144 137 132 128 127 122 122 112 103 98 74 67 49 56 66 88 97 87 94 113 78 42 71 68 53 43 37 31 30 33
150 149 150 142 138 139 135 138 134 138 147 153 151 150 145 142 144 139 139 134 131 122 127 115 96 79 60 68 89 106 106 106 120 107 32 57 52 44 31 20 16 16 16
155 155 152 146 142 139 140 142 142 144 142 143 148 156 152 148 148 149 150 147 147 146 148 142 139 117 83 75 74 95 112 115 116 112 72 41 49 39 20 8 3 360 2
162 155 154 150 142 141 138 144 141 141 138 141 134 147 155 152 152 154 154 155 164 155 140 121 103 82 73 64 55 58 103 107 119 120 102 59 28 22 14 1 351 350 352
159 153 156 149 142 142 139 141 138 134 134 134 131 132 145 149 153 152 154 160 159 145 135 131 125 99 79 76 58 15 36 81 115 125 101 77 37 11 3 1 353 348 343
159 153 154 149 149 148 141 134 132 131 131 136 134 133 141 146 144 146 155 158 152 140 136 143 122 128 116 93 95 40 20 28 93 103 99 89 54 13 354 359 0 353 346
147 143 147 149 149 144 132 119 112 110 116 125 135 140 135 145 146 140 141 154 149 140 136 137 131 107 132 154 92 38 349 325 351 104 137 85 33 18 355 350 345 342 350
130 135 143 147 150 146 146 142 140 149 156 150 150 144 136 139 153 148 144 146 151 151 154 146 132 121 79 99 74 11 346 339 335 310 249 153 3 348 349 337 327 329 334
142 143 142 145 157 160 160 157 150 143 149 153 149 144 144 145 152 157 152 155 152 143 138 138 132 128 89 81 114 99 341 328 322 320 304 261 275 307 320 321 311 320 318
144 153 153 161 162 158 148 137 122 100 97 108 136 165 162 156 153 153 156 149 148 147 156 156 150 147 159 226 110 143 156 239 299 307 301 285 287 289 292 293 300 304 314
161 150 150 162 162 156 148 154 160 169 175 189 180 172 157 153 148 140 150 144 143 150 153 160 151 152 150 164 7 31 167 169 187 297 309 310 294 281 282 295 299 299 305
161 159 160 168 162 163 163 165 170 175 176 155 147 153 162 155 150 148 155 147 141 144 140 135 137 140 155 169 173 165 57 46 154 198 277 299 305 279 270 267 270 286 294
156 153 156 158 169 170 174 176 174 168 163 158 163 165 173 164 159 150 149 148 153 153 152 156 142 147 162 156 161 172 170 180 214 207 251 282 285 285 280 265 250 270 286